This is the latest recevied weather packets stored in our database for station/object VK2HIM-1. If no packets are shown the sender has not sent any weather packets the latest 10 day(s).
| Time | Temp. | Humidity | Pressure | Rain* | Wind** | Luminosity | Snow |
|---|---|---|---|---|---|---|---|
| 1788139804 | 70° F | 74% | 773.1 mmHg | 0 in | - | 715 W/m² | - |
| 1788138903 | 70° F | 73% | 773.2 mmHg | 0 in | - | 712 W/m² | - |
| 1788138003 | 69° F | 72% | 773.3 mmHg | 0 in | - | 694 W/m² | - |
| 1788137103 | 69° F | 73% | 773.4 mmHg | 0 in | - | 675 W/m² | - |
| 1788136204 | 67° F | 76% | 773.5 mmHg | 0 in | - | 654 W/m² | - |
| 1788135303 | 66° F | 72% | 773.5 mmHg | 0 in | - | 629 W/m² | - |
| 1788134404 | 67° F | 75% | 773.6 mmHg | 0 in | - | 601 W/m² | - |
| 1788133504 | 66° F | 76% | 773.7 mmHg | 0 in | - | 568 W/m² | - |
| 1788132604 | 63° F | 83% | 773.5 mmHg | 0 in | - | 534 W/m² | - |
| 1788131704 | 62° F | 83% | 773.5 mmHg | 0 in | - | 496 W/m² | - |
| 1788130804 | 60° F | 86% | 773.4 mmHg | 0 in | - | 459 W/m² | - |
| 1788129904 | 57° F | 90% | 773.5 mmHg | 0 in | - | 415 W/m² | - |
| 1788129004 | 55° F | 91% | 773.4 mmHg | 0 in | - | 373 W/m² | - |
| 1788128104 | 54° F | 92% | 773.4 mmHg | 0 in | - | 325 W/m² | - |
| 1788127204 | 52° F | 92% | 773.3 mmHg | 0 in | - | 272 W/m² | - |
| 1788126304 | 50° F | 92% | 773.2 mmHg | 0 in | - | 223 W/m² | - |
| 1788125404 | 49° F | 91% | 773.1 mmHg | 0 in | - | 160 W/m² | - |
| 1788124504 | 49° F | 92% | 773 mmHg | 0 in | - | 109 W/m² | - |
| 1788123604 | 49° F | 91% | 772.9 mmHg | 0 in | - | 65 W/m² | - |
| 1788122704 | 49° F | 91% | 772.7 mmHg | 0 in | - | 16 W/m² | - |
| 1788121804 | 49° F | 92% | 772.6 mmHg | 0 in | - | 9 W/m² | - |
| 1788120904 | 50° F | 92% | 772.4 mmHg | 0 in | - | 0 W/m² | - |
| 1788120004 | 50° F | 92% | 772.3 mmHg | 0 in | - | 0 W/m² | - |
| 1788119104 | 51° F | 93% | 772.1 mmHg | 0 in | - | 0 W/m² | - |
| 1788118204 | 50° F | 93% | 772 mmHg | 0 in | - | 0 W/m² | - |
* Rain latest hour (hover to see other rain measurements)
** Current wind speed in m/s (hover to see current wind gust speed)